STARLINK-32451

Last updated on Thu Nov 21 2024 00:02:05 GMT+0000 (Coordinated Universal Time)

1 61857U 24202N 24325.58335648 -.01405942 00000+0 -97869-2 0 9992 2 61857 43.0033 50.5888 0001275 291.0580 127.1176 15.76235751 2982
UTC large
Height (km)
Speed (km/s)
/
Latitude / Longitude
Inclination (degrees)
Orbital Period (minutes)
Azimuth
Elevation
Range (km)
Doppler Factor

Next 0 passes for location: London (51.5072 / 0.1276)

Sorry there are no passes over London.